Time,TemperatureF,DewpointF,PressureIn,WindDirection,WindDirectionDegrees,WindSpeedMPH,WindSpeedGustMPH,Humidity,HourlyPrecipIn,Conditions,Clouds,dailyrainin,SoftwareType,DateUTC
2013-11-26 00:05:00,52.0,43.0,30.19,ENE,76,1.0,3.0,71,0.00,,,0.00,weatherlink.com 1.10,2013-11-26 07:05:00,
2013-11-26 00:20:00,51.7,43.0,30.19,East,80,2.0,4.0,71,0.00,,,0.00,weatherlink.com 1.10,2013-11-26 07:20:00,
2013-11-26 00:35:00,51.4,42.0,30.20,ESE,103,1.0,2.0,71,0.00,,,0.00,weatherlink.com 1.10,2013-11-26 07:35:00,
2013-11-26 00:50:00,51.1,42.0,30.20,ESE,103,1.0,2.0,72,0.00,,,0.00,weatherlink.com 1.10,2013-11-26 07:50:00,
2013-11-26 01:05:00,50.1,42.0,30.20,ESE,106,0.0,3.0,75,0.00,,,0.00,weatherlink.com 1.10,2013-11-26 08:05:00,
2013-11-26 01:20:00,50.4,42.0,30.20,East,84,3.0,3.0,74,0.00,,,0.00,weatherlink.com 1.10,2013-11-26 08:20:00,
2013-11-26 01:36:00,50.6,42.0,30.20,East,87,2.0,3.0,73,0.00,,,0.00,weatherlink.com 1.10,2013-11-26 08:36:00,
2013-11-26 01:50:00,50.3,42.0,30.20,ENE,68,1.0,4.0,74,0.00,,,0.00,weatherlink.com 1.10,2013-11-26 08:50:00,
2013-11-26 02:06:00,49.9,42.0,30.20,ENE,70,1.0,3.0,75,0.00,,,0.00,weatherlink.com 1.10,2013-11-26 09:06:00,
2013-11-26 02:21:00,49.8,42.0,30.20,East,86,0.0,2.0,74,0.00,,,0.00,weatherlink.com 1.10,2013-11-26 09:21:00,
2013-11-26 02:36:00,50.0,42.0,30.20,East,80,1.0,2.0,73,0.00,,,0.00,weatherlink.com 1.10,2013-11-26 09:36:00,
2013-11-26 02:51:00,49.0,42.0,30.20,East,81,1.0,1.0,76,0.00,,,0.00,weatherlink.com 1.10,2013-11-26 09:51:00,
2013-11-26 03:07:00,48.7,42.0,30.20,ENE,64,2.0,3.0,77,0.00,,,0.00,weatherlink.com 1.10,2013-11-26 10:07:00,
2013-11-26 03:21:00,48.8,42.0,30.20,East,81,2.0,4.0,76,0.00,,,0.00,weatherlink.com 1.10,2013-11-26 10:21:00,
2013-11-26 03:36:00,49.2,41.0,30.20,ESE,108,1.0,4.0,74,0.00,,,0.00,weatherlink.com 1.10,2013-11-26 10:36:00,
2013-11-26 03:51:00,49.2,41.0,30.20,ENE,78,0.0,2.0,73,0.00,,,0.00,weatherlink.com 1.10,2013-11-26 10:51:00,
2013-11-26 04:06:00,48.4,41.0,30.21,ESE,115,0.0,2.0,76,0.00,,,0.00,weatherlink.com 1.10,2013-11-26 11:06:00,
2013-11-26 04:21:00,47.9,42.0,30.20,ESE,118,1.0,1.0,79,0.00,,,0.00,weatherlink.com 1.10,2013-11-26 11:21:00,
2013-11-26 04:36:00,47.8,41.0,30.20,ESE,121,0.0,2.0,78,0.00,,,0.00,weatherlink.com 1.10,2013-11-26 11:36:00,
2013-11-26 04:51:00,47.7,42.0,30.21,ESE,108,1.0,1.0,79,0.00,,,0.00,weatherlink.com 1.10,2013-11-26 11:51:00,
2013-11-26 05:06:00,47.4,42.0,30.21,ESE,114,1.0,2.0,80,0.00,,,0.00,weatherlink.com 1.10,2013-11-26 12:06:00,
2013-11-26 05:21:00,47.9,42.0,30.21,ESE,117,0.0,2.0,79,0.00,,,0.00,weatherlink.com 1.10,2013-11-26 12:21:00,
2013-11-26 05:36:00,47.8,42.0,30.22,ESE,110,0.0,2.0,79,0.00,,,0.00,weatherlink.com 1.10,2013-11-26 12:36:00,
2013-11-26 05:51:00,47.0,41.0,30.22,East,91,2.0,3.0,80,0.00,,,0.00,weatherlink.com 1.10,2013-11-26 12:51:00,
2013-11-26 06:06:00,46.5,41.0,30.23,East,85,2.0,4.0,81,0.00,,,0.00,weatherlink.com 1.10,2013-11-26 13:06:00,
2013-11-26 06:21:00,46.3,41.0,30.23,ENE,77,3.0,4.0,81,0.00,,,0.00,weatherlink.com 1.10,2013-11-26 13:21:00,
2013-11-26 06:36:00,46.4,41.0,30.23,East,80,0.0,3.0,80,0.00,,,0.00,weatherlink.com 1.10,2013-11-26 13:36:00,
2013-11-26 06:51:00,46.2,41.0,30.23,East,96,0.0,2.0,81,0.00,,,0.00,weatherlink.com 1.10,2013-11-26 13:51:00,
2013-11-26 07:06:00,46.1,41.0,30.23,ENE,78,0.0,2.0,81,0.00,,,0.00,weatherlink.com 1.10,2013-11-26 14:06:00,
2013-11-26 07:21:00,46.2,40.0,30.24,East,94,2.0,3.0,80,0.00,,,0.00,weatherlink.com 1.10,2013-11-26 14:21:00,
2013-11-26 07:36:00,46.3,40.0,30.24,East,101,2.0,3.0,80,0.00,,,0.00,weatherlink.com 1.10,2013-11-26 14:36:00,
2013-11-26 07:51:00,46.7,41.0,30.24,East,97,0.0,1.0,80,0.00,,,0.00,weatherlink.com 1.10,2013-11-26 14:51:00,
2013-11-26 08:06:00,48.5,42.0,30.24,ESE,105,0.0,3.0,77,0.00,,,0.00,weatherlink.com 1.10,2013-11-26 15:06:00,
2013-11-26 08:21:00,50.3,42.0,30.24,ENE,67,1.0,2.0,74,0.00,,,0.00,weatherlink.com 1.10,2013-11-26 15:21:00,
2013-11-26 08:36:00,52.2,43.0,30.24,ENE,67,0.0,1.0,70,0.00,,,0.00,weatherlink.com 1.10,2013-11-26 15:36:00,
2013-11-26 08:51:00,52.6,43.0,30.25,West,259,0.0,1.0,69,0.00,,,0.00,weatherlink.com 1.10,2013-11-26 15:51:00,
2013-11-26 09:06:00,54.3,43.0,30.25,SW,229,0.0,1.0,66,0.00,,,0.00,weatherlink.com 1.10,2013-11-26 16:06:00,
2013-11-26 09:21:00,54.9,44.0,30.26,SSE,152,0.0,3.0,67,0.00,,,0.00,weatherlink.com 1.10,2013-11-26 16:21:00,
2013-11-26 09:37:00,56.8,44.0,30.26,SW,221,2.0,2.0,63,0.00,,,0.00,weatherlink.com 1.10,2013-11-26 16:37:00,
2013-11-26 09:52:00,56.5,44.0,30.26,SSW,210,2.0,2.0,64,0.00,,,0.00,weatherlink.com 1.10,2013-11-26 16:52:00,
2013-11-26 10:08:00,57.6,44.0,30.26,SW,231,0.0,2.0,61,0.00,,,0.00,weatherlink.com 1.10,2013-11-26 17:08:00,
2013-11-26 10:22:00,58.2,45.0,30.26,SSW,195,0.0,2.0,61,0.00,,,0.00,weatherlink.com 1.10,2013-11-26 17:22:00,
2013-11-26 10:37:00,57.9,43.0,30.26,West,269,1.0,4.0,59,0.00,,,0.00,weatherlink.com 1.10,2013-11-26 17:37:00,
2013-11-26 10:52:00,58.6,44.0,30.25,WNW,291,1.0,3.0,58,0.00,,,0.00,weatherlink.com 1.10,2013-11-26 17:52:00,
2013-11-26 11:07:00,60.2,43.0,30.25,NNW,346,0.0,2.0,54,0.00,,,0.00,weatherlink.com 1.10,2013-11-26 18:07:00,
2013-11-26 11:22:00,62.4,42.0,30.24,NNW,333,2.0,3.0,48,0.00,,,0.00,weatherlink.com 1.10,2013-11-26 18:22:00,
2013-11-26 11:37:00,63.0,41.0,30.24,NNE,16,3.0,3.0,44,0.00,,,0.00,weatherlink.com 1.10,2013-11-26 18:37:00,
2013-11-26 11:52:00,64.0,40.0,30.23,NNW,332,3.0,3.0,41,0.00,,,0.00,weatherlink.com 1.10,2013-11-26 18:52:00,
2013-11-26 12:07:00,64.3,44.0,30.22,SW,232,3.0,5.0,48,0.00,,,0.00,weatherlink.com 1.10,2013-11-26 19:07:00,
2013-11-26 12:22:00,64.5,44.0,30.21,SSE,166,2.0,4.0,47,0.00,,,0.00,weatherlink.com 1.10,2013-11-26 19:22:00,
2013-11-26 12:37:00,64.7,43.0,30.20,East,97,1.0,4.0,45,0.00,,,0.00,weatherlink.com 1.10,2013-11-26 19:37:00,
2013-11-26 12:52:00,66.0,42.0,30.19,WNW,293,0.0,3.0,42,0.00,,,0.00,weatherlink.com 1.10,2013-11-26 19:52:00,
2013-11-26 13:07:00,66.1,39.0,30.19,NNW,327,2.0,7.0,37,0.00,,,0.00,weatherlink.com 1.10,2013-11-26 20:07:00,
2013-11-26 13:22:00,67.1,38.0,30.18,West,280,1.0,3.0,35,0.00,,,0.00,weatherlink.com 1.10,2013-11-26 20:22:00,
2013-11-26 13:37:00,67.5,39.0,30.17,WNW,286,1.0,6.0,35,0.00,,,0.00,weatherlink.com 1.10,2013-11-26 20:37:00,
2013-11-26 13:52:00,66.7,41.0,30.17,WSW,240,6.0,6.0,39,0.00,,,0.00,weatherlink.com 1.10,2013-11-26 20:52:00,
2013-11-26 14:07:00,67.3,42.0,30.16,WSW,238,4.0,5.0,40,0.00,,,0.00,weatherlink.com 1.10,2013-11-26 21:07:00,
2013-11-26 14:22:00,68.3,41.0,30.16,SSW,211,2.0,6.0,37,0.00,,,0.00,weatherlink.com 1.10,2013-11-26 21:22:00,
2013-11-26 14:37:00,69.0,40.0,30.15,West,270,0.0,4.0,35,0.00,,,0.00,weatherlink.com 1.10,2013-11-26 21:37:00,
2013-11-26 14:52:00,69.1,40.0,30.14,WSW,255,1.0,4.0,35,0.00,,,0.00,weatherlink.com 1.10,2013-11-26 21:52:00,
2013-11-26 15:07:00,70.1,40.0,30.14,WNW,293,0.0,3.0,33,0.00,,,0.00,weatherlink.com 1.10,2013-11-26 22:07:00,
2013-11-26 15:22:00,69.7,40.0,30.14,WNW,291,2.0,3.0,34,0.00,,,0.00,weatherlink.com 1.10,2013-11-26 22:22:00,
2013-11-26 15:38:00,68.6,41.0,30.13,WSW,250,0.0,1.0,37,0.00,,,0.00,weatherlink.com 1.10,2013-11-26 22:38:00,
2013-11-26 15:53:00,67.7,41.0,30.13,WSW,248,0.0,2.0,38,0.00,,,0.00,weatherlink.com 1.10,2013-11-26 22:53:00,
2013-11-26 16:08:00,70.2,41.0,30.12,West,264,0.0,1.0,35,0.00,,,0.00,weatherlink.com 1.10,2013-11-26 23:08:00,
2013-11-26 16:23:00,69.6,41.0,30.12,West,265,1.0,3.0,35,0.00,,,0.00,weatherlink.com 1.10,2013-11-26 23:23:00,
2013-11-26 16:38:00,67.3,41.0,30.12,WSW,255,1.0,4.0,39,0.00,,,0.00,weatherlink.com 1.10,2013-11-26 23:38:00,
2013-11-26 16:53:00,65.8,41.0,30.11,WSW,255,0.0,1.0,40,0.00,,,0.00,weatherlink.com 1.10,2013-11-26 23:53:00,
2013-11-26 17:08:00,64.6,42.0,30.11,WSW,255,0.0,0.0,44,0.00,,,0.00,weatherlink.com 1.10,2013-11-27 00:08:00,
2013-11-26 17:23:00,62.6,42.0,30.11,WSW,254,0.0,0.0,47,0.00,,,0.00,weatherlink.com 1.10,2013-11-27 00:23:00,
2013-11-26 17:38:00,62.3,44.0,30.11,WSW,255,0.0,1.0,52,0.00,,,0.00,weatherlink.com 1.10,2013-11-27 00:38:00,
2013-11-26 17:53:00,61.3,47.0,30.11,East,86,0.0,1.0,59,0.00,,,0.00,weatherlink.com 1.10,2013-11-27 00:53:00,
2013-11-26 18:08:00,60.3,46.0,30.11,ESE,103,1.0,1.0,59,0.00,,,0.00,weatherlink.com 1.10,2013-11-27 01:08:00,
2013-11-26 18:23:00,60.1,44.0,30.11,ESE,122,0.0,1.0,56,0.00,,,0.00,weatherlink.com 1.10,2013-11-27 01:23:00,
2013-11-26 18:38:00,59.7,45.0,30.11,ESE,103,1.0,2.0,59,0.00,,,0.00,weatherlink.com 1.10,2013-11-27 01:38:00,
2013-11-26 18:53:00,59.1,45.0,30.11,East,98,1.0,2.0,60,0.00,,,0.00,weatherlink.com 1.10,2013-11-27 01:53:00,
2013-11-26 19:23:00,58.5,44.0,30.11,East,82,2.0,2.0,59,0.00,,,0.00,weatherlink.com 1.10,2013-11-27 02:23:00,
2013-11-26 19:38:00,57.8,44.0,30.11,East,80,2.0,3.0,61,0.00,,,0.00,weatherlink.com 1.10,2013-11-27 02:38:00,
2013-11-26 19:53:00,57.1,44.0,30.12,East,87,0.0,2.0,63,0.00,,,0.00,weatherlink.com 1.10,2013-11-27 02:53:00,
2013-11-26 20:08:00,56.5,45.0,30.12,East,87,1.0,1.0,65,0.00,,,0.00,weatherlink.com 1.10,2013-11-27 03:08:00,
2013-11-26 20:23:00,56.2,45.0,30.13,East,79,2.0,2.0,66,0.00,,,0.00,weatherlink.com 1.10,2013-11-27 03:23:00,
2013-11-26 20:53:00,55.3,44.0,30.14,ENE,73,3.0,5.0,65,0.00,,,0.00,weatherlink.com 1.10,2013-11-27 03:53:00,
2013-11-26 21:08:00,55.5,43.0,30.14,East,89,2.0,4.0,64,0.00,,,0.00,weatherlink.com 1.10,2013-11-27 04:08:00,
2013-11-26 21:23:00,55.8,43.0,30.13,ENE,74,2.0,4.0,62,0.00,,,0.00,weatherlink.com 1.10,2013-11-27 04:23:00,
2013-11-26 21:38:00,55.7,43.0,30.14,ENE,77,3.0,4.0,62,0.00,,,0.00,weatherlink.com 1.10,2013-11-27 04:38:00,
2013-11-26 21:53:00,55.1,43.0,30.14,ESE,118,0.0,3.0,64,0.00,,,0.00,weatherlink.com 1.10,2013-11-27 04:53:00,
2013-11-26 22:08:00,54.5,43.0,30.14,East,99,2.0,2.0,65,0.00,,,0.00,weatherlink.com 1.10,2013-11-27 05:08:00,
2013-11-26 22:23:00,54.4,43.0,30.14,SSE,165,0.0,1.0,65,0.00,,,0.00,weatherlink.com 1.10,2013-11-27 05:23:00,
2013-11-26 22:38:00,54.7,43.0,30.15,ESE,107,1.0,2.0,65,0.00,,,0.00,weatherlink.com 1.10,2013-11-27 05:38:00,
2013-11-26 22:53:00,55.1,43.0,30.15,ESE,110,1.0,2.0,63,0.00,,,0.00,weatherlink.com 1.10,2013-11-27 05:53:00,
2013-11-26 23:08:00,53.7,44.0,30.15,ENE,70,2.0,3.0,69,0.00,,,0.00,weatherlink.com 1.10,2013-11-27 06:08:00,
2013-11-26 23:23:00,53.4,43.0,30.14,East,97,1.0,2.0,69,0.00,,,0.00,weatherlink.com 1.10,2013-11-27 06:23:00,
2013-11-26 23:38:00,53.2,44.0,30.14,East,87,1.0,1.0,70,0.00,,,0.00,weatherlink.com 1.10,2013-11-27 06:38:00,
2013-11-26 23:53:00,53.3,44.0,30.14,ENE,68,2.0,2.0,70,0.00,,,0.00,weatherlink.com 1.10,2013-11-27 06:53:00,